Retour au catalogue

STARLINK-4146

ActifCommunicationsVLEO
NORAD 53294·PAYLOAD·🇺🇸 United States

Lancé Jul 24, 2022 depuis Cape Canaveral Space Force Station

Loading…

Prochains Passages (prochaines 24 heures)

TLE

FraisSource: CelesTrak SupGP

Époque: Sep 14, 2026, 21:18 UTC

1 53294C 22086BE  26257.88798611  .00025835  00000+0  73923-3 0  2577
2 53294  53.1596  32.8631 0001227  76.7643 247.8545 15.35383317    17

Suivez STARLINK-4146 en temps réel avec AllMySat

Download on the App Store